Skip Page Navigation
NASA JPL Caltech
NASA Logo - Jet Propulsion Laboratory + View the NASA Portal
+ Center for Near-Earth Object Studies
JPL Home Earth Solar System Stars & Galaxies Technology
JPL Solar System Dynamics
BODIES ORBITS EPHEMERIDES TOOLS PHYSICAL DATA DISCOVERY FAQ SITE MAP
JPL Small-Body Database Browser
Search: [ help ]  
(2008 UB95)
Classification: Aten [NEO]          SPK-ID: 3435023
Ephemeris | Orbit Diagram | Orbital Elements | Mission Design | Physical Parameters | Close-Approach Data ]

[ hide orbit diagram ]

For accurate long-term ephemerides, please instead use our Horizons system.This orbit viewer was implemented using two-body methods, and hence should not be used for determining accurate long-term trajectories (over several years or decades) or planetary encounter circumstances.


Orbital Elements at Epoch 2459200.5 (2020-Dec-17.0) TDB
Reference: JPL 20 (heliocentric ecliptic J2000)
 Element Value Uncertainty (1-sigma)   Units 
e .2685265392070748 8.5463e-07  
a .9904123022790534 3.4607e-08 au
q .724460314359948 8.7174e-07 au
i 3.252366332440018 4.6672e-06 deg
node 21.70682840478706 4.7645e-05 deg
peri 253.3383075227725 3.8073e-05 deg
M 205.3643922992814 0.00015092 deg
tp 2459355.142716800984
(2021-May-20.64271680)
0.00015881 TDB
period 360.016550367239
0.99
1.8869e-05
5.166e-08
d
yr
n .9999540288711112 5.241e-08 deg/d
Q 1.256364290198159 4.3899e-08 au
  Orbit Determination Parameters
   # obs. used (total)      66  
   data-arc span      4139 days (11.33 yr)  
   first obs. used      2008-10-29  
   last obs. used      2020-02-28  
   planetary ephem.      DE441  
   SB-pert. ephem.      SB441-N16  
   condition code      1  
   norm. resid. RMS      .42398  
   source      ORB  
   producer      Otto Matic  
   solution date      2021-Apr-15 02:06:36  

Additional Information
 Earth MOID = .000455619 au 
 Jupiter MOID = 3.8378 au 
 T_jup = 6.093 
[ show covariance matrix ]

Ephemeris | Orbit Diagram | Orbital Elements | Mission Design | Physical Parameters | Close-Approach Data ]

Physical Parameter Table
Parameter Symbol Value Units Sigma Reference Notes
absolute magnitude H 24.8   n/a MPO543359  

[ hide close-approach data ]
Close-Approach Data   ...sorted by Date/Time (TDB)
Date/Time (TDB) Time Uncertainty
(days_HH:MM)
Body Nominal Distance (au) Minimum Distance (au) Maximum Distance (au) V-relative (km/s) V-infinity (km/s) JD (TDB) Time Uncertainty (minutes) Semi-major axis (km) Semi-minor axis (km) range-LOV angle (deg) N-sigma BP Orbit Ref. Reference Modified
1900-Aug-25 09:54 00:20 Earth 0.228009614255903 0.227973018830404 0.228046210228946 6.75846252487198 6.75673323876682 2415256.912356138 19.8362776005772 1908.20586634571 75.3450352291518 17.1495412541737 59046.3406550121 T 20 CATAB v2.0g-lin.ifort 2021-Apr-15 02:06:36 2021-Apr-15 02:06
1900-Nov-13 21:51 00:18 Earth 0.211806642696136 0.211771595855942 0.211841689680447 6.3905894229255 6.38862063577063 2415337.410670535 17.6915943276859 1769.37256725673 136.265020203286 9.17832332032211 27317.9048098137 T 20 CATAB v2.0g-lin.ifort 2021-Apr-15 02:06:36 2021-Apr-15 02:06
1901-Aug-10 04:09 00:12 Earth 0.258122837267049 0.258100422470163 0.258145252105665 8.18945343241943 8.18819286977057 2415606.672916262 11.8673762418308 1129.70390888519 68.4711894131345 8.53455114753823 44935.0410041519 T 20 CATAB v2.0g-lin.ifort 2021-Apr-15 02:06:36 2021-Apr-15 02:06
1901-Nov-25 18:30 00:12 Earth 0.243751731869583 0.243729555070168 0.243773908850493 6.95253600372128 6.95096357664209 2415714.271156366 12.3686654349272 1155.20455097964 128.102696959478 16.9808451256822 59681.8661051773 T 20 CATAB v2.0g-lin.ifort 2021-Apr-15 02:06:36 2021-Apr-15 02:06
1902-Jul-28 11:39 00:08 Earth 0.278122933745066 0.278108831017671 0.278137036472618 9.17571776628259 9.17467362271095 2415958.985234007 7.66525214815959 703.320802233604 55.599402699352 1.70180811662628 33515.5900831519 T 20 CATAB v2.0g-lin.ifort 2021-Apr-15 02:06:36 2021-Apr-15 02:06
1902-Dec-06 03:59 00:09 Earth 0.2654533808167 0.265439237780628 0.265467524034387 7.36229606322088 7.3609325761152 2416089.666123301 8.70306340918866 787.377128461886 103.97800421269 26.6884540034809 123665.472024581 T 20 CATAB v2.0g-lin.ifort 2021-Apr-15 02:06:36 2021-Apr-15 02:06
1903-Jul-16 20:55 00:05 Earth 0.290764070944227 0.290755047517499 0.290773094376624 9.82908908521559 9.82815673528448 2416312.371380480 4.88397373750446 454.540565753134 45.3168055648807 -8.29382689984432 93795.7643306629 T 20 CATAB v2.0g-lin.ifort 2021-Apr-15 02:06:36 2021-Apr-15 02:06
1903-Dec-15 21:04 00:06 Earth 0.278902715791861 0.278893335620618 0.278912096124162 7.60335458771807 7.60209800738649 2416464.377714334 6.0809824604628 576.542435335672 60.3128508531231 36.0303665153218 277254.710566003 T 20 CATAB v2.0g-lin.ifort 2021-Apr-15 02:06:36 2021-Apr-15 02:06
1904-Jul-04 17:37 00:03 Earth 0.297220487713933 0.297214190825348 0.297226784626205 10.1898538919345 10.1889740910251 2416666.234109592 3.33654677777228 341.436501700767 50.9774415083864 -23.4394003707978 216199.944496816 T 20 CATAB v2.0g-lin.ifort 2021-Apr-15 02:06:36 2021-Apr-15 02:06
1904-Dec-24 04:32 00:04 Earth 0.284968619094282 0.284961176592028 0.284976061721719 7.67669850291385 7.67548042437579 2416838.688981509 4.02938637313524 475.958174947096 10.9821242595113 38.7978029140773 1676316.65051593 T 20 CATAB v2.0g-lin.ifort 2021-Apr-15 02:06:36 2021-Apr-15 02:06
1905-Jun-23 19:33 00:04 Earth 0.297891853450156 0.297886202972632 0.29789750397577 10.2700756955834 10.2692047349989 2417020.314272140 3.66816319310023 343.517953698852 78.2325419210467 -35.9990192382823 209442.117410262 T 20 CATAB v2.0g-lin.ifort 2021-Apr-15 02:06:36 2021-Apr-15 02:06
1906-Jan-02 09:01 00:03 Earth 0.283793923135708 0.283785845443487 0.283802000906944 7.64858997915002 7.64736236258784 2417212.875613991 2.53161544329734 467.1960753184 27.4486351799688 30.5275164728997 469327.277405928 T 20 CATAB v2.0g-lin.ifort 2021-Apr-15 02:06:36 2021-Apr-15 02:06
1906-Jun-12 22:30 00:05 Earth 0.29299459045673 0.292987727073947 0.293001453918656 10.0773329486926 10.076430491535 2417374.437219435 5.44100162291262 425.891274443906 109.383418147992 -38.0328480884823 153149.190077305 T 20 CATAB v2.0g-lin.ifort 2021-Apr-15 02:06:36 2021-Apr-15 02:06
1907-Jan-11 21:29 00:03 Earth 0.27525781442371 0.275246673575708 0.27526895531014 7.47792702960542 7.47663244907611 2417587.394803544 2.85590929719523 578.800142939701 27.2885861869392 16.37269663177 284921.031385388 T 20 CATAB v2.0g-lin.ifort 2021-Apr-15 02:06:36 2021-Apr-15 02:06
1907-Jun-01 18:15 00:08 Earth 0.282264319072993 0.282254418581709 0.282274219681902 9.60687096084294 9.60588831588855 2417728.260350534 7.94509309475596 576.6274235286 130.162519658553 -32.058670008144 105343.680973497 T 20 CATAB v2.0g-lin.ifort 2021-Apr-15 02:06:36 2021-Apr-15 02:06
1908-Jan-22 00:05 00:05 Earth 0.258790391389207 0.258773480005728 0.258807302784586 7.11821535005774 7.1167687875075 2417962.503781988 5.22961569038601 847.836000206138 11.2722336803115 6.10383978723628 239427.335390701 T 20 CATAB v2.0g-lin.ifort 2021-Apr-15 02:06:36 2021-Apr-15 02:06
1908-May-19 19:18 00:11 Earth 0.264865072070991 0.264849784679391 0.264880359593862 8.83701353324767 8.83587509331605 2418081.304503118 11.2149928640887 818.829976794442 136.359015623931 -21.7824976997835 64664.8867271608 T 20 CATAB v2.0g-lin.ifort 2021-Apr-15 02:06:36 2021-Apr-15 02:06
1909-Feb-01 08:18 00:09 Earth 0.2327663500518 0.232740019359947 0.232792680743152 6.58547693804556 6.58373848784734 2418338.845862972 9.20526130528352 1312.89432971152 21.6543480059947 1.45118755186438 30642.1041444957 T 20 CATAB v2.0g-lin.ifort 2021-Apr-15 02:06:36 2021-Apr-15 02:06
1909-May-06 05:12 00:16 Earth 0.239030104549145 0.239005775423174 0.23905443371524 7.71085572403821 7.70940995841314 2418432.716912284 16.072876194237 1223.10402062153 127.197978295694 -7.57114384488184 24335.1887626983 T 20 CATAB v2.0g-lin.ifort 2021-Apr-15 02:06:36 2021-Apr-15 02:06
1910-Feb-15 11:27 00:17 Earth 0.194651249292038 0.194609063467594 0.194693435108749 5.8237553028371 5.82140437277635 2418717.977179375 16.7878637677625 2102.74605179291 36.4634647715406 0.961828729910932 12232.9815684854 T 20 CATAB v2.0g-lin.ifort 2021-Apr-15 02:06:36 2021-Apr-15 02:06
1910-Apr-18 21:20 00:28 Earth 0.201315108379624 0.201274102756838 0.201356114646057 6.08869812709661 6.08652397916485 2418780.388617724 27.7459851886357 2122.32098589091 94.7648365362571 15.7718435784118 38718.2608385006 T 20 CATAB v2.0g-lin.ifort 2021-Apr-15 02:06:36 2021-Apr-15 02:06
1911-Mar-08 08:43 00:26 Earth 0.139156503070875 0.139088594290924 0.139224411868284 5.14018586750859 5.13645948462269 2419103.863068331 25.5266343089825 3387.22985432165 45.5883597588716 -0.0370195755071885 7230.1898959486 T 20 CATAB v2.0g-lin.ifort 2021-Apr-15 02:06:36 2021-Apr-15 02:06
1912-Mar-12 01:11 00:04 Earth 0.0746273882599493 0.074553512954889 0.0747012733719806 6.88451694914847 6.87932889727591 2419473.548993187 4.32110896238342 3923.54195742381 45.4540278117743 20.0485550556169 107031.260268735 T 20 CATAB v2.0g-lin.ifort 2021-Apr-15 02:06:36 2021-Apr-15 02:06
1913-Mar-10 09:15 00:06 Earth 0.0346582240467929 0.0346493465719664 0.0346673010316941 8.8305085823458 8.82179825293195 2419836.885501754 6.31519427740287 4186.28080606493 36.2199890132828 83.8690529643768 148784.223750317 T 20 CATAB v2.0g-lin.ifort 2021-Apr-15 02:06:36 2021-Apr-15 02:06
1914-Mar-07 23:07 00:08 Earth 0.0792373967493858 0.0791416750567512 0.079333159522334 10.9379876221176 10.9349129006802 2420199.463321996 8.2119790551487 5557.91977965079 28.8695680163934 -30.8083304162627 201768.242612652 T 20 CATAB v2.0g-lin.ifort 2021-Apr-15 02:06:36 2021-Apr-15 02:06
1915-Mar-05 05:17 00:10 Earth 0.15043159242029 0.15030398806855 0.150559207217681 13.2260170522154 13.224677788155 2420561.719976256 9.75129363904445 6663.35732123785 23.9598298937979 -17.2706105347353 258060.525584507 T 20 CATAB v2.0g-lin.ifort 2021-Apr-15 02:06:36 2021-Apr-15 02:06
